Weather History for Pagosa Springs, CO

Change the Weather History Date:

Friday, November 23, 2012

  Actual Average (KDRO) Record (KDRO)
Temperature  
Mean Temperature 38 °F 33 °F  
Max Temperature 53 °F 46 °F 62 °F (1981)
Min Temperature 22 °F 20 °F 3 °F (1983)
Degree Days  
Heating Degree Days 28 32  
Month to date heating degree days 649  
Since 1 July heating degree days 1437  
Cooling Degree Days 0 0  
Month to date cooling degree days 0  
Year to date cooling degree days 243  
Moisture  
Dew Point 18 °F    
Average Humidity 53    
Maximum Humidity 78    
Minimum Humidity 22    
Precipitation  
Precipitation 0.00 in 0.06 in 0.39 in (2013)
Month to date precipitation 1.36  
Year to date precipitation 14.58  
Sea Level Pressure  
Sea Level Pressure 30.47 in    
Wind  
Wind Speed 1 mph (SSW)    
Max Wind Speed 7 mph    
Max Gust Speed -    
Visibility 10 miles    
Events      
T = Trace of Precipitation, MM = Missing Value Source: NWS Daily Summary

Daily Weather History Graph

Daily Weather History Graph

Search for Another Location

Airport:

Trip Planner

Search our weather history database for the weather conditions in past years. The results will help you decide how hot, cold, wet, or windy it might be!

Date:

Astronomy

Nov. 23, 2012 Rise Set
Actual Time 6:56 AM MST 4:53 PM MST
Civil Twilight 6:27 AM MST 5:21 PM MST
Nautical Twilight 5:56 AM MST 5:53 PM MST
Astronomical Twilight 5:24 AM MST 6:24 PM MST
Moon 2:04 PM MST (11/23) 2:23 AM MST (11/23)
Length of Visible Light 10h 53m
Length of Day
9h 56m
Waxing Gibbous, 80% of the Moon is Illuminated
Nov 23
Waxing Gibbous
Nov 28
Full
Dec 6
Last Quarter
Dec 13
New
Dec 19
First Quarter

Hourly Weather History & Observations

Time (MST) Temp. Windchill Dew Point Humidity Pressure Visibility Wind Dir Wind Speed Gust Speed Precip Events Conditions
12:35 AM 27.9 °F - 20.3 °F 73% 30.41 in 10.0 mi Calm Calm - N/A   Clear
12:55 AM 26.8 °F - 18.7 °F 72% 30.42 in 10.0 mi Calm Calm - N/A   Clear
1:15 AM 26.4 °F - 18.3 °F 71% 30.42 in 10.0 mi Calm Calm - N/A   Clear
1:35 AM 26.2 °F - 18.5 °F 73% 30.43 in 10.0 mi Calm Calm - N/A   Clear
1:55 AM 28.0 °F - 18.3 °F 67% 30.43 in 10.0 mi Calm Calm - N/A   Clear
2:15 AM 25.0 °F - 18.0 °F 75% 30.44 in 10.0 mi Calm Calm - N/A   Clear
2:35 AM 25.2 °F - 18.1 °F 75% 30.44 in 10.0 mi Calm Calm - N/A   Clear
2:55 AM 24.4 °F 20.1 °F 18.3 °F 78% 30.44 in 10.0 mi NW 3.5 mph - N/A   Clear
3:15 AM 26.2 °F - 17.6 °F 70% 30.44 in 10.0 mi Calm Calm - N/A   Clear
3:35 AM 28.0 °F - 17.4 °F 64% 30.44 in 10.0 mi Calm Calm - N/A   Clear
3:55 AM 25.9 °F - 17.2 °F 70% 30.44 in 10.0 mi Calm Calm - N/A   Clear
4:15 AM 24.1 °F - 17.6 °F 76% 30.45 in 10.0 mi Calm Calm - N/A   Clear
4:35 AM 25.7 °F - 16.7 °F 69% 30.45 in 10.0 mi Calm Calm - N/A   Clear
4:55 AM 23.5 °F - 16.9 °F 76% 30.46 in 10.0 mi Calm Calm - N/A   Clear
5:15 AM 25.2 °F - 16.5 °F 70% 30.46 in 10.0 mi Calm Calm - N/A   Clear
5:35 AM 24.8 °F - 18.3 °F 76% 30.46 in 10.0 mi Calm Calm - N/A   Clear
5:55 AM 23.4 °F - 16.3 °F 75% 30.46 in 10.0 mi Calm Calm - N/A   Clear
6:15 AM 24.6 °F - 16.3 °F 71% 30.47 in 10.0 mi Calm Calm - N/A   Clear
6:35 AM 23.5 °F - 16.0 °F 73% 30.47 in 10.0 mi Calm Calm - N/A   Clear
6:55 AM 24.1 °F - 17.1 °F 75% 30.47 in 10.0 mi Calm Calm - N/A   Clear
7:15 AM 22.6 °F - 16.0 °F 76% 30.49 in 10.0 mi Calm Calm - N/A   Clear
7:35 AM 26.2 °F - 17.6 °F 70% 30.49 in 10.0 mi Calm Calm - N/A   Clear
7:55 AM 28.9 °F - 19.9 °F 69% 30.50 in 10.0 mi Calm Calm - N/A   Clear
8:15 AM 34.2 °F - 19.9 °F 56% 30.50 in 10.0 mi Calm Calm - N/A   Clear
8:35 AM 37.4 °F - 19.6 °F 49% 30.51 in 10.0 mi Calm Calm - N/A   Clear
8:55 AM 38.7 °F - 17.6 °F 43% 30.52 in 10.0 mi Calm Calm - N/A   Clear
9:15 AM 40.3 °F - 17.8 °F 40% 30.52 in 10.0 mi Calm Calm - N/A   Clear
9:35 AM 43.3 °F - 16.3 °F 34% 30.53 in 10.0 mi Calm Calm - N/A   Clear
9:55 AM 43.7 °F 39.7 °F 17.2 °F 35% 30.53 in 10.0 mi SSE 6.9 mph - N/A   Clear
10:15 AM 44.1 °F 40.8 °F 17.1 °F 34% 30.53 in 10.0 mi SSE 5.8 mph - N/A   Clear
10:35 AM 44.6 °F - 16.7 °F 33% 30.53 in 10.0 mi Calm Calm - N/A   Clear
10:55 AM 45.7 °F - 17.2 °F 32% 30.52 in 10.0 mi Calm Calm - N/A   Clear
11:15 AM 46.6 °F - 17.2 °F 31% 30.51 in 10.0 mi WSW 3.5 mph - N/A   Clear
11:35 AM 47.1 °F - 17.2 °F 30% 30.51 in 10.0 mi SW 4.6 mph - N/A   Clear
11:55 AM 48.0 °F - 17.6 °F 30% 30.49 in 10.0 mi SSW 3.5 mph - N/A   Clear
12:15 PM 48.7 °F - 17.4 °F 29% 30.49 in 10.0 mi SSW 5.8 mph - N/A   Clear
12:35 PM 50.0 °F - 17.6 °F 28% 30.48 in 10.0 mi South 5.8 mph - N/A   Clear
12:55 PM 50.2 °F - 16.9 °F 27% 30.47 in 10.0 mi South 5.8 mph - N/A   Clear
1:15 PM 51.6 °F - 17.6 °F 26% 30.46 in 10.0 mi West 6.9 mph - N/A   Clear
1:35 PM 51.3 °F - 16.0 °F 25% 30.46 in 10.0 mi Calm Calm - N/A   Clear
1:55 PM 52.0 °F - 16.5 °F 25% 30.46 in 10.0 mi Calm Calm - N/A   Clear
2:15 PM 52.7 °F - 15.6 °F 23% 30.45 in 10.0 mi Calm Calm - N/A   Clear
2:35 PM 53.1 °F - 15.8 °F 23% 30.44 in 10.0 mi South 3.5 mph - N/A   Clear
2:55 PM 52.9 °F - 15.1 °F 22% 30.44 in 10.0 mi South 4.6 mph - N/A   Clear
3:15 PM 53.2 °F - 15.1 °F 22% 30.44 in 10.0 mi SSW 5.8 mph - N/A   Clear
3:35 PM 52.9 °F - 15.8 °F 23% 30.44 in 10.0 mi WSW 4.6 mph - N/A   Clear
3:55 PM 52.7 °F - 16.0 °F 23% 30.44 in 10.0 mi SW 4.6 mph - N/A   Clear
4:15 PM 52.0 °F - 16.5 °F 25% 30.44 in 10.0 mi SW 5.8 mph - N/A   Clear
4:35 PM 50.9 °F - 16.9 °F 26% 30.44 in 10.0 mi SW 4.6 mph - N/A   Clear
4:55 PM 47.1 °F - 17.8 °F 31% 30.44 in 10.0 mi Calm Calm - N/A   Clear
5:15 PM 43.2 °F - 18.5 °F 37% 30.44 in 10.0 mi Calm Calm - N/A   Clear
5:35 PM 38.7 °F - 19.4 °F 46% 30.44 in 10.0 mi Calm Calm - N/A   Clear
5:55 PM 40.5 °F - 18.1 °F 41% 30.44 in 10.0 mi Calm Calm - N/A   Clear
6:15 PM 33.4 °F - 20.3 °F 59% 30.45 in 10.0 mi Calm Calm - N/A   Clear
6:35 PM 37.4 °F - 19.2 °F 48% 30.45 in 10.0 mi Calm Calm - N/A   Clear
6:55 PM 37.4 °F 32.8 °F 19.4 °F 48% 30.46 in 10.0 mi NNE 5.8 mph - N/A   Clear
7:15 PM 36.1 °F - 19.4 °F 51% 30.46 in 10.0 mi Calm Calm - N/A   Clear
7:35 PM 36.3 °F 33.7 °F 19.9 °F 52% 30.46 in 10.0 mi NE 3.5 mph - N/A   Clear
7:55 PM 33.6 °F - 19.9 °F 57% 30.46 in 10.0 mi Calm Calm - N/A   Clear
8:15 PM 30.7 °F - 19.8 °F 64% 30.46 in 10.0 mi Calm Calm - N/A   Clear
8:35 PM 31.5 °F - 19.6 °F 62% 30.46 in 10.0 mi Calm Calm - N/A   Clear
8:55 PM 31.8 °F - 19.8 °F 61% 30.47 in 10.0 mi Calm Calm - N/A   Clear
9:15 PM 30.7 °F - 19.6 °F 63% 30.48 in 10.0 mi Calm Calm - N/A   Clear
9:35 PM 28.9 °F - 19.8 °F 69% 30.48 in 10.0 mi Calm Calm - N/A   Clear
9:55 PM 28.4 °F - 19.4 °F 69% 30.48 in 10.0 mi Calm Calm - N/A   Clear
10:15 PM 28.6 °F - 19.6 °F 69% 30.48 in 10.0 mi Calm Calm - N/A   Clear
10:35 PM 29.8 °F - 19.8 °F 66% 30.47 in 10.0 mi Calm Calm - N/A   Clear
10:55 PM 29.8 °F - 19.8 °F 66% 30.47 in 10.0 mi Calm Calm - N/A   Clear
11:15 PM 27.1 °F - 19.6 °F 73% 30.46 in 10.0 mi Calm Calm - N/A   Clear
11:35 PM 25.7 °F - 19.4 °F 77% 30.46 in 10.0 mi Calm Calm - N/A   Clear
11:55 PM 26.8 °F - 19.8 °F 75% 30.46 in 10.0 mi Calm Calm - N/A   Clear